Waarnemingen

Advertentie
Mijn weer
Nancy/Ochey, Frankrijk (7181): temperatuur & dauwpunt: 21.06.2017 02:00:00 - 27.06.2017 02:00:00 (CEST)Nancy/Ochey, Frankrijk (7181): temperatuur 5cm: 21.06.2017 02:00:00 - 27.06.2017 02:00:00 (CEST)Nancy/Ochey, Frankrijk (7181): temperatuur -20cm & temperatuur -100cm: 21.06.2017 02:00:00 - 27.06.2017 02:00:00 (CEST)Nancy/Ochey, Frankrijk (7181): windsnelheid & windstoten: 21.06.2017 02:00:00 - 27.06.2017 02:00:00 (CEST)Nancy/Ochey, Frankrijk (7181): windrichting: 21.06.2017 02:00:00 - 27.06.2017 02:00:00 (CEST)Nancy/Ochey, Frankrijk (7181): luchtdruk: 21.06.2017 02:00:00 - 27.06.2017 02:00:00 (CEST)Nancy/Ochey, Frankrijk (7181): zicht: 21.06.2017 02:00:00 - 27.06.2017 02:00:00 (CEST)Nancy/Ochey, Frankrijk (7181): neerslag: 21.06.2017 02:00:00 - 27.06.2017 02:00:00 (CEST)
Datum & Tijd tt [°C] td [°C] tt 5cm [°C] tt -20cm [°C] tt -100cm [°C] ff [km/u] ff [kn] fx [km/u] fx [kn] dd ppp [hPa] vv [km] rr [mm]
27.06.2017 02:00:00 18,8 16,4 17,2 22,5 17,3 4 2 16 9 ZO 1010,4 59 0,2
27.06.2017 01:00:00 20,0 15,4 19,2 22,5 17,3 8 5 13 7 Z 1010,5 60 0,0
27.06.2017 00:00:00 20,9 14,8 19,3 22,4 17,3 9 5 14 7 O 1010,3 60 0,0
26.06.2017 23:00:00 21,9 15,5 19,4 22,3 17,3 3 2 13 7 NO 1010,4 60 0,0
26.06.2017 22:00:00 22,8 15,1 22,4 22,2 17,3 14 8 31 17 WZW 1009,9 60 0,0
26.06.2017 21:00:00 26,1 13,9 25,7 22,1 17,3 11 6 16 9 NO 1008,6 60 0,0
26.06.2017 20:00:00 27,4 13,3 27,3 22,0 17,3 6 4 17 9 NO 1008,4 60 0,0
26.06.2017 19:00:00 28,4 13,1 30,1 21,8 17,3 13 7 20 11 NNO 1008,1 56 0,0
26.06.2017 18:00:00 29,0 12,4 31,7 21,6 17,3 11 6 27 14 NNO 1008,6 55 0,0
26.06.2017 17:00:00 30,6 12,5 38,8 21,5 17,2 13 7 27 14 NNO 1008,6 60 0,0
26.06.2017 16:00:00 30,0 12,9 37,6 21,4 17,3 14 7 28 15 NNW 1009,1 60 0,0
26.06.2017 15:00:00 29,5 13,3 37,5 21,3 17,3 13 7 27 14 NNO 1009,9 20 0,0
26.06.2017 14:00:00 27,8 13,3 35,7 21,2 17,3 10 5 25 13 N 1010,7 55 0,0
26.06.2017 13:00:00 27,4 13,7 29,0 21,2 17,2 14 7 21 12 NNO 1011,5 57 0,0
26.06.2017 12:00:00 26,0 13,8 29,5 21,2 17,2 8 4 18 10 WNW 1012,0 20 0,0
26.06.2017 11:00:00 24,4 13,9 30,9 21,2 17,2 5 3 17 9 O 1012,8 50 0,0
26.06.2017 10:00:00 22,9 13,9 28,9 21,3 17,2 4 2 17 9 ONO 1013,1 60 0,0
26.06.2017 09:00:00 21,6 14,0 26,8 21,4 17,2 2 1 10 5 NO 1013,6 41 0,0
26.06.2017 08:00:00 19,9 14,3 20,3 21,4 17,2 0 0 5 3 N 1013,8 50 0,0
26.06.2017 07:00:00 17,0 13,5 11,9 21,5 17,2 4 2 9 5 ZW 1014,3 44 0,0
26.06.2017 06:00:00 14,8 12,7 11,7 21,6 17,2 3 2 10 6 Z 1015,0 59 0,0
26.06.2017 05:00:00 15,6 12,5 12,7 21,6 17,2 5 3 21 11 WNW 1015,0 60 0,0
26.06.2017 04:00:00 16,2 12,9 15,1 21,7 17,2 18 10 24 13 ZZW 1014,9 60 0,0
26.06.2017 03:00:00 16,8 13,1 15,4 21,7 17,2 18 10 24 13 ZZW 1015,2 60 0,0
26.06.2017 02:00:00 16,6 12,9 15,5 21,8 17,2 16 9 21 12 ZZW 1015,5 60 0,0
26.06.2017 01:00:00 17,1 12,8 15,8 21,8 17,2 14 8 21 11 ZZW 1015,7 60 0,0
26.06.2017 00:00:00 17,9 12,8 15,9 21,8 17,2 13 7 18 10 ZZW 1015,7 60 0,0
25.06.2017 23:00:00 18,6 12,6 16,1 21,8 17,2 8 4 13 7 Z 1015,4 60 0,0
25.06.2017 22:00:00 19,5 12,7 17,7 21,8 17,2 10 5 18 10 ZZW 1015,4 60 0,0
25.06.2017 21:00:00 22,1 12,6 22,2 21,8 17,2 11 6 26 14 WZW 1014,6 52 0,0
25.06.2017 20:00:00 23,3 12,3 24,7 21,7 17,1 16 9 29 16 WZW 1014,4 60 0,0
25.06.2017 19:00:00 23,2 11,9 23,8 21,7 17,1 20 11 38 21 W 1014,5 60 0,0
25.06.2017 18:00:00 23,4 11,8 24,9 21,7 17,2 19 10 41 22 W 1014,6 60 0,0
25.06.2017 17:00:00 24,2 11,8 25,1 21,7 17,2 24 13 42 23 W 1014,7 60 0,0
25.06.2017 16:00:00 24,0 12,9 26,7 21,7 17,1 23 12 42 23 W 1015,1 60 0,0
25.06.2017 15:00:00 24,0 12,3 25,7 21,7 17,1 26 14 40 21 WZW 1015,0 60 0,0
25.06.2017 14:00:00 24,5 12,4 24,3 21,7 17,1 26 14 40 22 ZW 1015,1 60 0,0
25.06.2017 13:00:00 22,5 12,1 23,7 21,7 17,1 23 12 36 19 WZW 1015,6 60 0,0
25.06.2017 12:00:00 21,9 11,6 23,5 21,7 17,1 25 13 41 22 WZW 1015,8 60 0,0
25.06.2017 11:00:00 22,9 11,6 23,5 21,8 17,1 24 13 38 20 ZW 1015,4 56 0,0
25.06.2017 10:00:00 21,5 12,6 23,4 21,8 17,1 21 11 30 16 WZW 1015,5 52 0,0
25.06.2017 09:00:00 20,4 12,4 21,2 21,9 17,1 19 10 29 16 WZW 1015,4 42 0,0
25.06.2017 08:00:00 19,1 11,9 17,5 22,0 17,1 19 10 26 14 ZW 1015,3 38 0,0
25.06.2017 07:00:00 17,0 11,3 15,7 22,1 17,1 17 9 25 14 ZZW 1015,6 59 0,0
25.06.2017 06:00:00 16,6 11,1 14,5 22,2 17,1 16 9 21 12 Z 1015,8 60 0,0
25.06.2017 05:00:00 15,7 10,9 14,4 22,3 17,1 11 6 16 9 ZZW 1016,0 60 0,0
25.06.2017 04:00:00 16,6 11,1 15,2 22,3 17,1 10 5 14 7 Z 1016,0 60 0,0
25.06.2017 03:00:00 17,2 11,2 15,5 22,4 17,1 9 5 21 11 ZZW 1016,4 60 0,0
25.06.2017 02:00:00 17,1 11,6 14,8 22,3 17,0 11 6 16 9 ZW 1016,4 60 0,0
25.06.2017 01:00:00 16,8 11,3 15,0 22,4 17,0 8 4 10 6 ZW 1016,7 60 0,0
25.06.2017 00:00:00 17,9 11,5 15,0 22,3 17,0 8 4 12 6 WZW 1016,5 59 0,0
24.06.2017 23:00:00 18,3 11,4 16,4 22,3 17,0 8 4 17 9 WNW 1016,4 60 0,0
24.06.2017 22:00:00 20,4 11,6 18,2 22,2 17,0 7 4 19 11 NW 1015,9 60 0,0
24.06.2017 21:00:00 23,5 11,5 23,6 22,2 17,0 14 8 24 13 WNW 1014,9 50 0,0
24.06.2017 20:00:00 25,0 11,9 27,2 22,1 17,0 16 8 26 14 WNW 1014,8 60 0,0
24.06.2017 19:00:00 25,8 11,9 28,8 22,0 17,0 17 9 29 16 WNW 1014,8 52 0,0
24.06.2017 18:00:00 26,3 11,6 27,4 21,9 17,0 17 9 32 17 W 1015,1 47 0,0
24.06.2017 17:00:00 25,1 11,3 26,8 21,8 17,0 19 11 34 19 W 1015,7 60 0,0
24.06.2017 16:00:00 26,0 10,6 29,0 21,7 16,9 18 10 37 20 W 1015,9 53 0,0
24.06.2017 15:00:00 26,2 10,4 31,8 21,6 16,9 16 9 40 22 ZW 1016,4 49 0,0
24.06.2017 14:00:00 25,2 10,3 28,2 21,6 16,9 16 9 34 19 W 1017,2 55 0,0
24.06.2017 13:00:00 24,9 10,7 26,6 21,7 16,9 15 8 34 19 W 1017,8 60 0,0
24.06.2017 12:00:00 23,4 10,8 25,2 21,7 16,9 18 10 36 19 W 1018,5 60 0,0
24.06.2017 11:00:00 21,3 10,7 23,9 21,8 16,9 13 7 35 19 WZW 1019,1 20 0,0
24.06.2017 10:00:00 19,0 10,8 21,5 21,9 16,9 11 6 27 14 W 1019,9 38 0,0
24.06.2017 09:00:00 17,8 10,9 19,6 22,0 16,9 11 6 21 12 W 1020,4 50 0,0
24.06.2017 08:00:00 16,3 11,7 15,8 22,1 16,9 7 4 11 6 ZW 1020,4 39 0,0
24.06.2017 07:00:00 15,2 12,0 14,1 22,2 16,9 7 4 10 5 ZW 1020,3 38 0,0
24.06.2017 06:00:00 14,5 12,0 12,8 22,3 16,9 5 3 9 5 ZW 1020,4 33 0,0
24.06.2017 05:00:00 14,2 11,7 10,1 22,4 16,9 4 2 6 3 WZW 1020,5 38 0,0
24.06.2017 04:00:00 14,2 11,5 10,5 22,5 16,9 4 2 8 4 Z 1020,3 29 0,0
24.06.2017 03:00:00 14,2 11,5 9,8 22,5 16,9 5 3 12 7 W 1020,0 29 0,0
24.06.2017 02:00:00 15,6 11,8 9,7 22,6 16,8 3 2 9 5 WNW 1019,8 40 0,0
24.06.2017 01:00:00 16,2 11,8 11,1 22,5 16,8 6 3 11 6 NW 1019,8 50 0,0
24.06.2017 00:00:00 17,7 12,4 13,2 22,6 16,8 7 4 11 6 WNW 1019,4 58 0,0
23.06.2017 23:00:00 19,0 12,5 15,5 22,5 16,8 8 4 9 5 WZW 1019,4 60 0,0
23.06.2017 22:00:00 20,3 12,5 17,6 22,5 16,8 6 3 23 12 W 1018,9 27 0,0
23.06.2017 21:00:00 23,5 12,8 23,4 22,4 16,8 16 8 31 17 W 1017,6 49 0,0
23.06.2017 20:00:00 25,3 13,2 27,2 22,4 16,8 17 9 35 19 W 1017,2 32 0,0
23.06.2017 19:00:00 25,9 13,1 28,2 22,3 16,7 17 9 37 20 W 1017,0 22 0,0
23.06.2017 18:00:00 26,1 13,6 28,2 22,3 16,7 22 12 40 21 W 1017,1 21 0,0
23.06.2017 17:00:00 25,7 12,5 30,9 22,2 16,7 26 14 40 21 WZW 1017,5 22 0,0
23.06.2017 16:00:00 25,5 13,4 28,3 22,2 16,7 26 14 45 25 W 1018,0 20 0,0
23.06.2017 15:00:00 24,9 14,4 27,4 22,1 16,6 27 15 48 26 W 1018,1 28 0,0
23.06.2017 14:00:00 25,5 14,3 29,0 22,1 16,6 23 12 47 25 W 1018,0 34 0,0
23.06.2017 13:00:00 24,3 14,1 26,3 22,1 16,6 22 12 41 22 W 1018,1 18 0,0
23.06.2017 12:00:00 21,9 14,0 24,7 22,2 16,6 19 10 41 22 WNW 1018,7 20 0,0
23.06.2017 11:00:00 22,3 13,1 26,1 22,2 16,6 19 11 36 19 W 1018,4 48 0,0
23.06.2017 10:00:00 21,8 12,9 24,9 22,4 16,6 23 12 37 20 WZW 1017,9 53 0,0
23.06.2017 09:00:00 19,7 12,9 21,3 22,5 16,6 15 8 23 12 WZW 1017,9 20 0,0
23.06.2017 08:00:00 18,2 12,9 17,7 22,6 16,6 11 6 21 12 W 1017,7 50 0,0
23.06.2017 07:00:00 16,5 12,5 15,5 22,7 16,6 10 6 21 11 W 1017,3 32 0,0
23.06.2017 06:00:00 16,1 12,1 14,9 22,7 16,6 10 5 15 8 WZW 1017,0 34 0,0
23.06.2017 05:00:00 17,2 11,7 16,2 22,8 16,6 9 5 13 7 W 1016,4 37 0,0
23.06.2017 04:00:00 18,7 11,3 17,4 22,9 16,6 10 5 19 10 W 1015,8 48 0,0
23.06.2017 03:00:00 20,1 11,3 19,2 22,9 16,5 12 7 36 19 WNW 1015,3 44 0,0
23.06.2017 02:00:00 21,8 15,4 20,8 22,9 16,5 18 10 27 14 WNW 1014,7 25 0,0
23.06.2017 01:00:00 23,5 17,0 21,8 23,0 16,5 9 5 24 13 W 1014,1 31 0,0
23.06.2017 00:00:00 25,9 11,6 23,0 22,9 16,5 13 7 25 14 W 1013,6 57 0,0
22.06.2017 23:00:00 26,4 10,1 24,9 22,9 16,5 18 10 26 14 ZZW 1012,5 59 0,0
22.06.2017 22:00:00 27,5 9,8 25,8 22,9 16,5 16 9 25 13 ZZW 1012,3 59 0,0
22.06.2017 21:00:00 30,6 8,9 30,6 22,8 16,5 19 10 35 19 ZW 1011,2 44 0,0
22.06.2017 20:00:00 31,8 8,7 32,0 22,7 16,5 21 11 46 25 W 1011,1 33 0,0
22.06.2017 19:00:00 33,9 14,4 35,5 22,6 16,4 24 13 48 26 WZW 1009,8 30 0,0
22.06.2017 18:00:00 34,8 13,6 36,2 22,5 16,4 33 18 52 28 WZW 1009,6 32 0,0
22.06.2017 17:00:00 36,5 15,6 35,7 22,3 16,4 30 16 53 29 WZW 1009,7 39 0,0
22.06.2017 16:00:00 34,5 15,9 36,4 22,2 16,4 29 16 50 27 WZW 1010,4 33 0,0
22.06.2017 15:00:00 35,4 14,1 39,6 22,1 16,4 24 13 45 25 ZW 1010,9 20 0,0
22.06.2017 14:00:00 35,5 15,8 40,7 22,0 16,4 23 13 45 25 WZW 1011,3 20 0,0
22.06.2017 13:00:00 34,9 16,2 37,3 22,0 16,4 26 14 38 21 ZW 1011,9 34 0,0
22.06.2017 12:00:00 33,9 17,6 37,7 22,0 16,4 23 12 35 19 ZW 1012,7 38 0,0
22.06.2017 11:00:00 31,8 17,3 35,9 22,0 16,4 23 12 31 17 ZZW 1013,3 20 0,0
22.06.2017 10:00:00 30,9 17,2 33,9 22,1 16,3 22 12 29 16 ZZW 1013,3 45 0,0
22.06.2017 09:00:00 28,8 15,3 30,6 22,1 16,3 14 8 23 13 ZZW 1013,7 51 0,0
22.06.2017 08:00:00 25,4 15,7 24,4 22,2 16,3 7 4 14 8 ZZO 1014,1 60 0,0
22.06.2017 07:00:00 22,9 15,0 20,1 22,3 16,3 7 4 13 7 ZO 1014,3 20 0,0
22.06.2017 06:00:00 22,0 14,4 19,1 22,3 16,3 9 5 11 6 ZZO 1014,5 39 0,0
22.06.2017 05:00:00 21,9 13,8 19,7 22,4 16,3 5 3 14 8 ZO 1014,6 40 0,0
22.06.2017 04:00:00 22,7 13,7 19,4 22,4 16,3 11 6 14 8 ZZO 1014,6 39 0,0
22.06.2017 03:00:00 22,6 13,6 17,1 22,4 16,3 7 4 9 5 ZO 1014,8 43 0,0
22.06.2017 02:00:00 22,1 13,7 17,1 22,4 16,3 4 2 8 4 Z 1015,0 43 0,0
22.06.2017 01:00:00 23,3 13,5 19,3 22,4 16,3 5 3 9 5 Z 1015,1 43 0,0
22.06.2017 00:00:00 24,5 13,7 19,7 22,4 16,3 5 3 10 5 ZO 1015,0 48 0,0
21.06.2017 23:00:00 25,6 13,8 19,7 22,3 16,3 2 1 6 3 O 1014,8 44 0,0
21.06.2017 22:00:00 26,9 13,3 20,4 22,2 16,2 5 3 10 5 N 1014,4 48 0,0
21.06.2017 21:00:00 30,2 13,0 27,9 22,1 16,2 5 3 8 5 NNW 1013,5 53 0,0
21.06.2017 20:00:00 31,6 12,4 34,4 22,0 16,2 7 4 16 9 N 1012,9 44 0,0
21.06.2017 19:00:00 32,5 12,7 37,0 21,8 16,2 11 6 22 12 NNW 1012,6 51 0,0
21.06.2017 18:00:00 33,3 12,3 39,0 21,7 16,2 10 5 26 14 N 1012,6 34 0,0
21.06.2017 17:00:00 33,0 10,9 39,8 21,6 16,2 6 4 24 13 W 1012,8 60 0,0
21.06.2017 16:00:00 32,9 11,4 39,3 21,5 16,2 10 5 22 12 N 1013,2 44 0,0
21.06.2017 15:00:00 32,4 10,4 38,7 21,4 16,1 11 6 25 13 WZW 1013,8 43 0,0
21.06.2017 14:00:00 31,8 14,0 38,3 21,3 16,1 7 4 23 12 NNW 1014,1 20 0,0
21.06.2017 13:00:00 30,9 14,9 37,3 21,3 16,1 9 5 23 13 N 1014,7 20 0,0
21.06.2017 12:00:00 30,0 15,3 37,1 21,4 16,2 8 5 19 10 NNO 1014,8 43 0,0
21.06.2017 11:00:00 28,4 15,0 33,7 21,4 16,1 7 4 14 7 WNW 1014,9 37 0,0
21.06.2017 10:00:00 26,6 16,2 30,0 21,5 16,1 3 2 9 5 N 1015,1 19 0,0
21.06.2017 09:00:00 24,1 15,6 26,1 21,6 16,1 4 2 6 4 NO 1015,4 40 0,0
21.06.2017 08:00:00 20,8 14,4 20,2 21,6 16,1 2 1 5 3 NW 1015,8 32 0,0
21.06.2017 07:00:00 18,2 13,5 12,1 21,7 16,1 0 0 3 2 N 1016,1 19 0,0
21.06.2017 06:00:00 17,0 12,7 11,0 21,8 16,1 0 0 5 3 N 1015,9 57 0,0
21.06.2017 05:00:00 17,3 12,4 11,1 21,8 16,1 3 1 5 3 ZW 1015,6 56 0,0
21.06.2017 04:00:00 19,6 12,6 12,9 21,9 16,1 4 2 5 3 ZZW 1015,2 60 0,0
21.06.2017 03:00:00 19,3 12,1 13,4 21,9 16,1 3 1 6 3 ZW 1015,5 59 0,0
21.06.2017 02:00:00 21,5 11,5 18,2 21,9 16,1 6 3 9 5 ZZW 1015,6 60 0,0

tt = temperatuur
td = dauwpunt
tt 5cm = temperatuur 5cm
tt -20cm = temperatuur -20cm
tt -100cm = temperatuur -100cm
ff = windsnelheid
fx = windstoten
dd = windrichting
ppp = luchtdruk
vv = zicht
rr = neerslag

Weerstations in de omgeving